Regional Weather Roundup
Issued by NWS

Home | Current Version | Previous Version | Text Only | Print | Product List | Glossary Off
Versions: 1 2 3 4 5 6 7 8 9 10 11 12 13 14 15 16 17 18 19 20 21 22 23 24 25 26 27 28 29 30 31 32 33 34 35 36 37 38 39 40 41 42 43 44 45 46 47 48 49 50

000
ASUS45 KBOI 191810
RWRID
WEATHER ROUNDUP FOR IDAHO
NATIONAL WEATHER SERVICE BOISE ID
1200 PM MDT SUN OCT 19 2014

NOTE: "FAIR" INDICATES FEW OR NO CLOUDS BELOW 12000 FEET
WITH NO SIGNIFICANT WEATHER AND/OR OBSTRUCTIONS TO VISIBILITY

IDZ012-014-191900-
SOUTHWEST IDAHO


CITY           SKY/WX    TMP DP  RH WIND       PRES   REMARKS
BOISE          SUNNY     64  33  31 S7        30.01F
CALDWELL       SUNNY     64  36  34 S9        30.03F
MOUNTAIN HOME  SUNNY     61  34  36 SE18      30.02F
$$

IDZ016-017-191900-
SOUTHCENTRAL IDAHO


CITY           SKY/WX    TMP DP  RH WIND       PRES   REMARKS
BURLEY         SUNNY     60  37  42 NE12      30.08F
JEROME         LGT RAIN  65  32  29 NE15      30.07F
TWIN FALLS     SUNNY     61  37  41 E9        30.07F
$$

IDZ019>023-191900-
SOUTHEAST IDAHO


CITY           SKY/WX    TMP DP  RH WIND       PRES   REMARKS
IDAHO FALLS    SUNNY     59  37  44 CALM      30.15F
POCATELLO      SUNNY     60  36  40 N5        30.14F
REXBURG        SUNNY     56  38  50 CALM      30.16F
$$

IDZ006-010-011-018-031-032-191900-
CENTRAL IDAHO MOUNTAINS


CITY           SKY/WX    TMP DP  RH WIND       PRES   REMARKS
MCCALL         SUNNY     51  40  65 CALM      30.07F
HAILEY         SUNNY     57  28  33 NW7       30.16F
STANLEY          N/A     45  30  55 NW5       30.18F
SALMON         NOT AVBL
CHALLIS        SUNNY     52  31  44 VRB3      30.14F
$$

IDZ002-004-006-007-026-191900-
NORTHERN IDAHO


CITY           SKY/WX    TMP DP  RH WIND       PRES   REMARKS
LEWISTON       MOSUNNY   62  45  53 E9        29.91F
LOWELL           N/A     53  45  74 N5        30.01F
COEUR D`ALENE  MOSUNNY   54  46  76 N14       29.95F
MULLAN PASS    SUNNY     52  40  63 VRB3      30.06S
$$



USA.gov is the U.S. government's official web portal to all federal, state and local government web resources and services.